Regional Weather Roundup
Issued by NWS

Home | Current Version | Previous Version | Graphics & Text | Print | Product List | Glossary On
Versions: 1 2 3 4 5 6 7 8 9 10 11 12 13 14 15 16 17 18 19 20 21 22 23 24 25 26 27 28 29 30 31 32 33 34 35 36 37 38 39 40 41 42 43 44 45 46 47 48 49 50
000
ASUS45 KPSR 190110
RWRAZ

ARIZONA HOURLY REGIONAL WEATHER ROUNDUP
NATIONAL WEATHER SERVICE PHOENIX AZ
600 PM MST FRI AUG 18 2017

NOTE: FAIR INDICATES FEW OR NO CLOUDS BELOW 12,000 FEET WITH NO
SIGNIFICANT WEATHER AND/OR OBSTRUCTIONS TO VISIBILITY.

AZZ001>003-036-190200-
NORTHWEST ARIZONA

CITY           SKY/WX    TMP DP  RH WIND       PRES   REMARKS
BULLHEAD CITY  SUNNY    108  32   7 S14G20    29.77F HX 100
KINGMAN        SUNNY     94  34  12 SW13      30.01
$$

AZZ004>008-015-016-018-190200-
NORTH CENTRAL ARIZONA

CITY           SKY/WX    TMP DP  RH WIND       PRES   REMARKS
GRAND CANYON   MOSUNNY   81  35  19 E3        30.26F
WILLIAMS       SUNNY     79  30  17 SW12      30.27F
PRESCOTT       SUNNY     85  38  18 SW9       30.14F
FLAGSTAFF      SUNNY     76  31  19 SW14      30.30F
PAYSON           N/A     86  28  12 W9        30.15F
PAGE           SUNNY     96  32  10 NE5       30.02F
$$

AZZ009>014-017-190200-
NORTHEAST ARIZONA

CITY           SKY/WX    TMP DP  RH WIND       PRES   REMARKS
WINSLOW        SUNNY     92  29  10 CALM      30.09F
SAINT JOHNS    FAIR      88  34  14 W6        30.14F
WINDOW ROCK    SUNNY     86  28  12 W3        30.24F
SHOW LOW       SUNNY     82  34  17 SW6       30.23F
$$

AZZ540-542>544-546-548-190200-
GREATER PHOENIX AREA

CITY           SKY/WX    TMP DP  RH WIND       PRES   REMARKS
PHOENIX        MOSUNNY  102  39  11 SW6       29.81F
BUCKEYE        SUNNY    102  36  10 SW5       29.82F
GLENDALE       MOSUNNY  104  32   8 SW8       29.83F
LUKE AFB       SUNNY    103  35   9 W5        29.81F
DEER VALLEY    SUNNY    101  28   7 SW12      29.84F
SCOTTSDALE     SUNNY    103  30   8 SW8       29.86F
MESA-FALCON    MOSUNNY  100  37  11 VRB6      29.85F
MESA-GATEWAY   MOSUNNY  100  37  11 SW7       29.85F
CHANDLER       SUNNY    102  34   9 S6        29.83F
$$

AZZ539-553-190200-
SOUTHWEST MARICOPA COUNTY AND PINAL COUNTY

CITY           SKY/WX    TMP DP  RH WIND       PRES   REMARKS
CASA GRANDE      N/A    N/A N/A N/A MISG        N/A
GILA BEND      FAIR     105  35   9 NW10      29.78F
$$

AZZ503-504-507>509-190200-
SOUTHEAST ARIZONA

CITY           SKY/WX    TMP DP  RH WIND       PRES   REMARKS
TUCSON         NOT AVBL
DAVIS-MONTHAN  SUNNY     99  40  12 NW6       29.94F
RYAN FIELD     SUNNY     99  37  12 NW8       29.93F
NOGALES        MOSUNNY   90  43  19 W5        30.05S
SIERRA VISTA   MOSUNNY   89  39  16 NW13      30.12R
DOUGLAS        PTSUNNY   88  49  25 NW7       30.05S
SAFFORD        SUNNY     97  36  12 W9        29.93
$$

AZZ532-190200-
SOUTHWEST ARIZONA

CITY           SKY/WX    TMP DP  RH WIND       PRES   REMARKS
YUMA           SUNNY    103  53  19 S12       29.76F HX 101
$$

CAZ041-043-047-048-061-525>527-560>570-190200-
SOUTHERN CALIFORNIA

CITY           SKY/WX    TMP DP  RH WIND       PRES   REMARKS
DOWNTOWN L.A.  SUNNY     76  62  62 W6        29.92F
L.A. AIRPORT   MOSUNNY   70  63  78 W12       29.93F
SAN DIEGO      MOSUNNY   73  62  68 W10       29.95F
BURBANK        SUNNY     78  57  48 S10       29.92S
ONTARIO        MOSUNNY   84  59  42 W12       29.92S
RIVERSIDE      SUNNY     83  59  44 W10G18    29.91F
PALM SPRINGS   SUNNY    106  37   9 E7        29.79F HX 100
EL CENTRO NAS  MOSUNNY  105  40  11 CALM      29.75F
IMPERIAL       MOSUNNY  105  48  14 CALM      29.73F HX 101
BLYTHE         SUNNY    107  35   8 S8        29.76F HX 100
NEEDLES        SUNNY    108  31   7 SW14G20   29.79F HX 100
$$

NVZ020-UTZ003-190200-
SOUTHERN NEVADA-UTAH

CITY           SKY/WX    TMP DP  RH WIND       PRES   REMARKS
LAS VEGAS      MOSUNNY  102  35  10 E3        29.87F
SALT LAKE CITY MOSUNNY   91  36  14 N12       30.06F
$$

NMZ009-TXZ055-190200-
NEW MEXICO-WEST TEXAS

CITY           SKY/WX    TMP DP  RH WIND       PRES   REMARKS
ALBUQUERQUE    PTCLDY    91  20   7 CALM      30.12F
EL PASO        MOCLDY    88  57  34 S13       30.03
$$


........................KEY........................
SKY/WX - SKY CONDITION/WEATHER
TMP    - TEMPERATURE IN FAHRENHEIT
DP     - DEW POINT IN FAHRENHEIT
RH     - RELATIVE HUMIDITY IN PERCENT
WIND   - DIRECTION AND SPEED IN MILES PER HOUR (MPH)
VRB    - VARIABLE WIND DIRECTION
PRES   - MEAN SEA LEVEL PRESSURE IN INCHES OF MERCURY
         F - FALLING PRESSURE   R - RISING PRESSURE
         S - STEADY PRESSURE
VSB    - VISIBILITY IN MILES
HX     - HEAT INDEX IN FAHRENHEIT
WCI    - WIND CHILL INDEX IN FAHRENHEIT
TC     - TEMPERATURE IN CELSIUS WHICH IS ALSO KNOWN AS
         TEMPERATURE IN CENTIGRADE
AFB    - AIR FORCE BASE
         LUKE AFB IS LUKE AIR FORCE BASE
         DAVIS-MONTHAN IS DAVIS-MONTHAN AIR FORCE BASE
NAS    - NAVAL AIR STATION
         EL CENTRO NAS IS EL CENTRO NAVAL AIR STATION
N/A    - NOT AVAILABLE




USA.gov is the U.S. government's official web portal to all federal, state and local government web resources and services.